Pagina principale
METAR-TAF:

METAR-TAF

Aeroporti :

Johannesburg, Sudafrica

latitudine: 26-09S, longitudine: 28-00E, altezza: 1626 m

Osservazione

Il bollettino è stato emesso 53 minuti fa, alle 07:00 UTC
Vento 4 kt da est/nord-est
Temperature 15°C
Umidità 39%
Pressione 1033 hPa

METAR: FAJB 220700Z AUTO 07004KT //// // ////// 15/01 Q1033

Ora: 09:53 (07:53 UTC)


TAF: mancante

Osservazioni e previsioni meteorologiche di più di 4000 aeroporti (messaggi METAR e TAF).

Le stazioni disponibili sono rappresentate dai dischi gialli e rossi sulla carta.

Puntare il mouse per vedere il nome della stazione.

Clicca sopra per visualizzare le osservazioni e previsioni meteorologiche.

Per cambiare la mappa : fare clic sui pulsanti verdi con una croce nera per ingrandire, il pulsante verde con un trattino per diminuire, o sulla freccia verde per le mappe adiacenti.


METAR-TAF: